Theta_e
272 273 272 272 272 273 272 271 272 272 272 272 272 272 272 273 273 273 273 274 274 274 274 274 275 275 275 276 276 277 278 279 279 281 281 281 282 282 281 281 282 282
271 272 272 272 272 272 271 272 271 271 271 272 272 272 273 273 273 273 273 273 273 273 274 274 274 274 274 275 275 276 277 277 278 280 279 280 281 281 280 281 281 281
271 271 271 270 270 270 271 271 271 271 271 271 272 272 272 272 272 272 272 273 272 273 273 273 273 274 274 274 274 275 275 276 277 278 279 279 280 280 280 280 280 280
270 270 270 270 270 270 270 270 270 271 271 271 271 271 271 271 271 271 271 272 272 272 272 273 273 273 273 273 274 274 275 275 276 277 277 278 279 280 279 280 280 280
269 269 270 270 270 270 270 269 269 270 269 270 270 270 270 270 270 270 271 270 271 271 272 272 272 272 272 272 273 273 274 274 276 276 276 276 278 278 278 279 278 278
269 269 269 269 269 269 269 268 268 269 268 269 269 270 270 269 269 269 270 269 270 270 271 271 271 271 271 272 272 272 273 273 274 275 275 275 276 277 277 278 277 277
268 268 268 269 268 269 268 268 268 268 268 268 269 268 269 268 269 269 269 269 269 270 270 270 270 270 271 271 271 271 272 273 274 274 274 275 276 276 276 276 276 276
268 268 268 268 268 268 267 267 267 267 267 268 267 268 268 268 268 268 268 268 268 269 269 269 269 269 270 270 270 270 270 272 273 273 273 274 274 274 275 276 276 275
267 267 267 267 267 267 266 266 266 266 267 266 267 267 268 267 267 267 267 268 268 268 268 268 268 269 269 269 269 269 270 271 272 272 272 273 273 273 274 275 274 275
267 267 266 267 266 267 265 266 266 266 266 266 266 267 266 267 267 267 267 267 267 267 267 267 268 268 268 269 269 269 269 270 271 272 272 272 272 273 273 273 273 273
266 266 266 266 265 266 265 265 265 265 266 265 266 265 266 266 266 267 266 266 266 266 266 267 267 267 267 268 268 269 269 270 271 271 272 272 272 273 273 273 273 273
265 265 265 265 265 265 265 265 265 265 265 265 265 265 265 265 265 265 266 265 266 266 266 266 267 267 267 267 267 269 270 270 271 271 272 272 272 272 272 273 273 273
265 265 265 264 264 264 264 264 264 264 264 264 265 264 264 264 265 265 265 265 265 265 265 266 266 266 266 267 267 269 269 270 270 271 271 271 272 272 272 273 273 273
265 264 264 264 264 264 264 263 263 263 263 264 264 263 264 264 263 264 264 265 265 265 265 266 265 265 266 266 267 268 269 270 270 270 270 271 271 272 272 272 272 272
264 264 264 264 264 263 263 263 263 263 263 263 263 263 263 263 263 263 263 263 264 264 264 265 264 265 265 266 267 268 270 270 270 270 270 270 271 271 271 271 272 272
264 264 264 264 263 263 263 263 263 263 263 263 262 263 263 263 263 263 263 263 263 263 264 264 264 264 266 268 270 269 270 270 270 270 270 270 270 270 270 271 271 271
264 264 264 263 263 262 262 262 262 262 262 262 262 262 262 262 262 262 262 263 262 262 263 263 263 264 266 269 270 272 270 270 269 269 270 270 270 269 269 269 270 270
264 263 263 263 262 262 262 262 262 262 262 262 262 261 262 262 262 262 262 262 262 262 262 263 263 265 267 269 270 271 271 271 270 269 269 269 269 269 268 269 269 269
263 263 262 262 262 262 262 261 261 261 261 261 261 261 261 261 261 261 261 262 262 261 262 262 263 265 267 269 270 271 271 271 269 269 268 268 268 268 268 268 268 268
263 262 262 262 261 261 261 261 261 261 261 261 261 261 261 261 261 261 261 261 261 261 261 262 262 264 267 269 269 270 271 271 268 268 267 267 268 268 268 268 268 268
262 262 261 261 261 260 260 260 260 260 260 261 261 260 260 260 260 260 260 260 261 261 261 261 261 264 267 268 269 270 271 270 267 267 267 267 267 268 268 268 268 268
261 261 260 260 260 260 259 259 260 260 260 260 259 260 260 260 260 260 260 260 260 260 260 260 261 265 266 267 269 269 270 267 267 266 266 267 267 267 268 268 268 268
261 260 260 259 259 259 259 259 259 259 259 259 259 259 259 259 259 259 260 260 259 260 260 260 260 262 265 267 268 269 268 266 266 266 266 266 266 267 267 268 268 268
260 260 259 259 259 258 258 259 259 259 259 259 258 258 258 259 259 258 259 259 259 259 260 259 259 261 264 266 267 268 268 265 265 265 265 265 266 267 267 268 268 269
260 259 259 259 258 258 258 258 258 258 258 258 257 258 257 258 258 258 258 259 259 259 259 258 259 260 263 265 266 267 267 265 265 265 264 265 265 266 267 268 268 269
259 259 259 258 258 258 258 258 258 257 257 257 257 257 257 257 257 257 257 258 259 259 259 259 259 260 261 264 266 267 268 266 265 264 264 264 265 266 266 267 268 268
Wind_Speed
7 7 7 7 7 7 7 8 8 8 8 8 8 8 8 9 11 11 11 11 11 10 11 11 11 11 10 10 11 10 9 10 9 9 10 10 9 10 10 12 11 9
8 7 7 6 6 7 7 7 7 7 8 8 7 8 8 9 10 10 10 11 11 10 11 11 11 11 11 10 11 10 9 9 10 8 10 11 9 9 10 11 10 10
7 7 7 8 6 8 8 7 7 7 7 7 8 8 8 8 9 10 10 10 10 10 10 11 11 11 11 10 10 9 9 10 9 10 10 10 9 9 9 9 8 10
7 6 6 7 6 7 7 7 7 6 7 7 8 8 7 8 9 10 10 10 10 10 10 11 11 10 10 10 10 8 9 8 8 10 10 9 9 9 9 9 9 9
6 6 6 6 6 6 6 6 8 7 8 7 8 8 8 9 9 9 9 10 10 10 10 11 11 10 10 10 10 8 9 8 9 10 9 10 9 9 9 9 10 10
5 5 6 5 6 6 7 6 7 8 8 8 8 7 8 9 8 9 10 10 10 10 10 10 10 10 10 10 9 8 9 8 9 10 10 10 10 9 8 9 11 11
5 5 6 5 6 5 6 6 7 7 7 7 8 8 8 9 9 9 9 10 10 10 10 10 11 11 10 9 9 9 9 9 9 10 11 10 10 11 10 10 10 11
4 4 5 4 6 5 7 6 7 7 7 8 8 8 8 9 9 9 9 10 9 10 10 10 10 10 10 9 9 10 10 8 9 11 11 11 10 11 11 10 11 12
3 4 5 5 5 5 7 7 7 7 7 8 8 8 8 8 8 9 10 10 9 9 10 9 10 10 9 10 10 10 10 10 10 11 11 11 12 12 11 11 11 11
3 4 4 5 5 5 6 7 7 6 7 7 7 7 8 8 8 9 9 9 9 10 10 10 10 10 10 9 10 10 10 11 11 11 11 11 11 12 12 11 12 12
3 3 4 4 5 5 6 6 7 6 6 7 7 8 8 8 8 8 8 9 9 10 10 10 10 10 10 10 9 9 10 10 11 11 11 12 11 11 12 12 12 12
2 3 3 4 4 5 5 6 6 6 7 6 7 8 8 7 8 8 8 9 9 10 10 10 10 10 10 10 9 9 10 11 11 11 11 12 11 11 11 11 11 12
2 2 3 3 3 4 4 5 5 6 6 7 7 7 7 8 8 8 8 8 9 9 10 10 10 10 9 9 9 10 11 11 12 12 11 11 11 12 12 11 11 11
2 2 2 3 3 3 4 4 5 5 6 6 6 7 7 8 8 9 8 8 8 9 9 9 10 9 9 8 9 11 11 11 12 12 12 12 12 11 11 11 12 12
2 2 2 2 3 3 4 4 4 5 5 5 6 6 6 7 7 8 9 9 9 9 9 9 8 8 6 8 11 12 11 12 12 12 12 12 12 12 11 11 11 10
2 2 2 2 2 3 4 4 4 5 5 5 5 6 6 6 7 8 8 8 9 9 9 8 8 6 9 17 16 12 12 11 11 11 11 11 12 12 12 11 11 10
2 2 2 2 2 3 3 4 5 4 5 5 5 6 6 6 7 8 7 8 9 9 9 8 7 7 16 18 18 20 14 12 12 12 11 11 11 11 12 12 11 11
2 2 2 2 2 3 4 4 4 5 5 5 5 6 6 6 7 7 8 8 7 8 9 9 9 13 18 18 19 20 18 13 11 11 11 10 10 11 11 11 12 12
2 2 3 3 3 3 3 4 4 5 5 5 5 5 6 6 7 7 7 7 8 9 9 9 9 14 17 19 19 19 20 17 11 11 10 10 11 11 11 11 11 12
3 3 3 3 3 3 3 4 4 5 5 5 5 5 5 6 7 7 7 7 8 9 9 9 10 13 18 20 19 20 19 17 11 11 10 11 11 11 11 12 12 11
3 3 3 3 3 3 4 4 4 4 4 4 4 5 6 6 7 7 7 7 8 8 8 9 9 16 18 20 19 20 20 17 10 10 10 10 10 11 11 12 12 11
4 4 4 3 3 4 4 4 4 4 4 4 4 5 5 5 6 6 7 8 8 9 9 9 10 16 18 19 20 19 21 11 10 10 10 10 10 11 11 11 11 11
4 4 4 4 4 4 4 4 4 4 4 3 5 5 5 5 6 6 7 8 9 8 9 9 10 14 18 19 19 20 16 10 10 9 10 10 10 11 11 11 10 11
5 5 5 4 4 4 5 4 4 4 4 3 4 5 6 6 6 6 7 7 8 9 8 9 10 13 18 19 19 19 16 11 10 9 10 10 10 11 10 10 12 16
5 5 5 5 5 5 4 4 4 4 4 4 4 5 5 5 5 6 7 7 7 8 10 11 10 12 16 18 20 19 15 10 10 9 10 10 10 11 11 11 11 11
5 5 5 5 5 5 4 4 4 4 4 4 4 4 5 5 5 6 7 7 7 8 7 8 9 10 12 18 19 19 18 11 9 9 10 11 11 11 11 11 10 10
Wind_Direction
28 26 25 22 23 17 9 7 2 1 359 357 357 349 349 347 346 346 345 347 346 347 347 347 347 346 344 342 344 338 340 345 344 344 343 343 342 347 346 346 348 348
29 27 25 19 21 15 8 5 358 359 354 354 352 343 344 344 343 345 344 344 344 345 345 345 346 345 345 344 342 338 340 343 342 344 339 340 341 344 344 342 343 342
27 24 26 21 15 8 4 2 358 357 353 348 346 346 342 341 339 342 341 343 341 343 344 345 343 345 344 342 339 336 340 338 340 341 338 336 340 341 340 338 340 340
25 22 18 17 10 6 1 2 358 357 351 349 350 343 341 338 338 338 339 342 342 340 341 343 343 342 343 340 339 336 337 336 337 339 336 334 336 337 337 336 335 335
18 17 14 13 6 3 360 359 357 355 350 346 344 342 343 342 340 339 340 341 341 338 340 341 341 342 341 339 339 336 337 336 338 341 336 334 333 337 333 333 332 332
19 17 9 11 2 3 358 356 352 349 346 346 345 340 341 343 339 339 339 339 338 337 337 339 340 340 340 338 336 339 336 337 336 338 335 333 331 335 331 331 329 329
14 12 7 6 0 2 358 353 352 348 345 342 338 339 343 340 340 337 340 337 335 336 338 337 339 338 338 337 336 334 335 333 333 337 334 331 331 329 331 332 329 326
11 8 4 357 358 357 1 352 350 349 342 341 338 338 343 336 338 339 337 335 333 334 336 335 335 336 335 337 333 332 333 336 334 335 331 328 330 328 329 330 326 324
8 4 360 350 356 355 359 352 349 346 343 342 338 337 339 336 336 336 335 333 332 333 334 334 335 334 334 333 331 331 331 331 332 330 329 327 327 325 326 324 325 322
6 359 358 355 354 356 352 350 346 343 341 341 338 337 336 335 335 335 335 332 333 334 334 332 333 331 331 330 328 329 329 328 328 327 324 323 321 321 323 323 321 320
357 355 354 352 351 350 348 345 345 342 339 341 338 336 336 335 334 337 334 333 334 334 330 332 331 330 327 327 327 327 327 325 323 322 321 320 318 316 317 318 317 317
345 342 344 344 345 345 345 344 343 340 337 338 335 334 335 334 336 336 333 330 332 328 328 328 328 327 325 325 326 327 327 322 321 319 318 317 315 314 315 315 313 313
335 334 334 334 340 340 338 337 337 336 335 333 334 332 332 333 334 333 330 330 327 327 326 327 325 324 324 324 326 328 323 322 320 319 315 315 312 311 310 311 310 309
315 323 321 321 330 331 330 331 330 331 331 329 328 330 330 332 330 330 328 328 324 326 325 325 323 321 324 326 327 323 320 320 321 317 315 312 310 309 311 309 309 308
289 303 304 305 320 322 325 327 327 324 325 325 326 326 326 325 326 326 326 323 323 326 324 323 321 320 323 328 322 320 321 322 319 317 314 311 310 310 309 308 308 309
273 276 287 307 305 318 319 322 324 322 319 322 324 322 323 323 323 324 321 322 325 323 324 321 318 315 314 317 319 320 322 321 318 315 313 311 311 309 308 309 309 309
264 272 291 300 303 307 312 319 320 318 315 319 320 323 322 324 324 321 323 324 322 321 321 318 315 310 313 319 320 322 324 321 318 315 312 311 308 309 309 311 312 312
257 270 279 287 299 303 312 313 312 313 316 316 318 321 323 321 317 320 322 321 320 319 316 315 311 309 316 318 321 324 325 322 319 315 313 311 309 309 308 309 310 311
250 269 271 276 293 307 305 304 307 310 312 315 316 318 317 314 315 319 319 321 319 318 316 312 309 309 316 318 322 324 324 323 319 317 312 308 308 306 306 307 308 310
245 255 262 272 283 298 301 298 304 305 310 310 308 312 312 312 313 317 317 319 319 317 313 309 307 308 315 318 323 324 324 324 323 318 310 305 305 305 305 306 307 308
236 242 254 264 277 282 286 289 292 297 302 307 314 310 310 313 317 316 317 315 315 315 311 306 301 307 315 319 322 325 324 328 323 314 308 303 302 302 301 301 303 303
224 233 239 249 263 268 273 284 288 290 299 308 305 300 300 304 304 308 311 312 311 310 308 304 303 309 316 319 322 325 326 327 319 313 308 304 304 302 301 302 302 302
224 228 235 245 255 260 267 273 281 287 291 301 299 298 302 303 305 309 307 305 305 305 306 304 304 308 314 318 321 324 326 322 318 311 307 306 303 304 303 301 299 299
214 217 228 238 244 250 261 268 275 283 278 287 290 298 299 301 306 303 300 298 299 301 304 307 302 304 310 315 320 321 324 321 316 312 308 307 304 304 303 300 299 300
208 213 224 233 238 251 254 261 271 275 287 282 276 281 286 292 294 294 296 295 293 296 297 294 295 300 307 315 317 320 322 319 316 311 309 307 306 305 303 303 304 304
204 211 222 225 239 247 243 252 266 269 267 273 279 279 283 289 289 286 291 292 296 294 295 294 296 299 305 311 314 317 319 320 316 311 309 308 307 306 307 307 306 309